QPF
0.03 0.03 0.03 0.02 0.02 0.02 0.03 0.02 0.03 0.04 0.05 0.04 0.04 0.06 0.06 0.06 0.06 0.06 0.07 0.08 0.09 0.11 0.09 0.07 0.10 0.11 0.09 0.07 0.06 0.07 0.07 0.06 0.07 0.08 0.06 0.05 0.04 0.04 0.02 0.02 0.02 0.02 0.02
0.03 0.02 0.02 0.02 0.01 0.02 0.02 0.02 0.02 0.03 0.03 0.03 0.03 0.03 0.04 0.04 0.05 0.05 0.06 0.07 0.09 0.09 0.11 0.09 0.06 0.07 0.08 0.07 0.07 0.08 0.08 0.07 0.08 0.08 0.06 0.04 0.04 0.03 0.02 0.03 0.03 0.03 0.04
0.04 0.02 0.01 0.01 0.01 0.01 0.01 0.01 0.01 0.01 0.02 0.03 0.02 0.02 0.03 0.03 0.03 0.03 0.04 0.05 0.07 0.06 0.06 0.06 0.07 0.08 0.08 0.08 0.08 0.07 0.08 0.08 0.07 0.07 0.06 0.04 0.02 0.02 0.02 0.03 0.04 0.03 0.03
0.03 0.02 0.01 0.01 0.01 0.01 0.00 0.01 0.01 0.01 0.02 0.02 0.02 0.02 0.03 0.04 0.03 0.04 0.04 0.04 0.05 0.06 0.05 0.04 0.04 0.06 0.08 0.08 0.08 0.07 0.07 0.08 0.08 0.07 0.06 0.04 0.03 0.03 0.04 0.05 0.04 0.04 0.03
0.03 0.02 0.01 0.01 0.01 0.01 0.01 0.01 0.01 0.01 0.01 0.01 0.02 0.02 0.02 0.02 0.02 0.03 0.04 0.04 0.04 0.05 0.05 0.04 0.04 0.05 0.06 0.08 0.09 0.09 0.09 0.08 0.07 0.07 0.07 0.05 0.04 0.03 0.02 0.03 0.04 0.04 0.03
0.04 0.02 0.01 0.01 0.01 0.01 0.01 0.01 0.01 0.01 0.01 0.02 0.02 0.01 0.01 0.01 0.01 0.01 0.02 0.02 0.04 0.05 0.07 0.06 0.05 0.05 0.05 0.05 0.08 0.09 0.08 0.08 0.07 0.06 0.06 0.06 0.04 0.02 0.02 0.02 0.03 0.04 0.04
0.03 0.02 0.02 0.01 0.01 0.01 0.01 0.01 0.01 0.01 0.02 0.02 0.02 0.02 0.02 0.01 0.00 0.01 0.01 0.01 0.02 0.03 0.05 0.06 0.05 0.05 0.04 0.04 0.06 0.09 0.10 0.09 0.08 0.07 0.06 0.06 0.04 0.03 0.03 0.03 0.02 0.03 0.03
0.02 0.02 0.02 0.01 0.01 0.01 0.01 0.01 0.01 0.01 0.01 0.01 0.01 0.01 0.01 0.01 0.01 0.01 0.01 0.01 0.02 0.02 0.02 0.04 0.04 0.04 0.04 0.03 0.04 0.05 0.06 0.07 0.08 0.08 0.07 0.06 0.05 0.04 0.03 0.04 0.03 0.03 0.03
0.03 0.02 0.02 0.01 0.01 0.01 0.01 0.01 0.01 0.01 0.01 0.01 0.01 0.01 0.01 0.01 0.01 0.01 0.01 0.01 0.01 0.02 0.02 0.03 0.03 0.03 0.03 0.04 0.04 0.04 0.04 0.05 0.05 0.04 0.04 0.04 0.04 0.04 0.03 0.03 0.03 0.03 0.03
0.03 0.02 0.01 0.01 0.01 0.01 0.01 0.01 0.01 0.01 0.01 0.01 0.01 0.01 0.01 0.01 0.01 0.01 0.01 0.01 0.01 0.02 0.02 0.02 0.02 0.03 0.04 0.04 0.04 0.05 0.04 0.04 0.03 0.03 0.03 0.03 0.03 0.03 0.03 0.03 0.03 0.03 0.04
0.02 0.01 0.01 0.01 0.01 0.00 0.01 0.01 0.01 0.01 0.01 0.02 0.02 0.02 0.04 0.04 0.04 0.04 0.04 0.04 0.04 0.03 0.03 0.03 0.03 0.04 0.04 0.05 0.05 0.05 0.05 0.04 0.03 0.03 0.02 0.03 0.04 0.03 0.03 0.03 0.03 0.03 0.03
0.02 0.01 0.01 0.01 0.00 0.01 0.01 0.01 0.01 0.01 0.02 0.03 0.04 0.04 0.07 0.08 0.07 0.06 0.07 0.07 0.07 0.05 0.03 0.03 0.04 0.04 0.03 0.03 0.04 0.05 0.05 0.05 0.05 0.04 0.03 0.03 0.04 0.03 0.02 0.02 0.03 0.03 0.03
0.01 0.01 0.01 0.01 0.01 0.01 0.01 0.01 0.02 0.02 0.03 0.03 0.03 0.03 0.04 0.03 0.03 0.03 0.04 0.05 0.05 0.04 0.03 0.03 0.04 0.03 0.02 0.02 0.03 0.04 0.05 0.04 0.05 0.05 0.04 0.03 0.02 0.01 0.01 0.02 0.02 0.02 0.02
0.01 0.01 0.01 0.01 0.01 0.01 0.01 0.02 0.03 0.03 0.04 0.03 0.03 0.03 0.03 0.03 0.03 0.03 0.03 0.03 0.04 0.04 0.04 0.03 0.02 0.02 0.02 0.02 0.03 0.04 0.04 0.04 0.05 0.05 0.04 0.03 0.02 0.01 0.01 0.02 0.01 0.01 0.02
0.01 0.01 0.01 0.01 0.01 0.01 0.01 0.02 0.03 0.04 0.04 0.03 0.03 0.03 0.03 0.03 0.02 0.03 0.03 0.02 0.02 0.05 0.08 0.04 0.03 0.03 0.03 0.03 0.03 0.04 0.05 0.05 0.05 0.05 0.05 0.05 0.03 0.02 0.02 0.02 0.01 0.01 0.01
0.00 0.00 0.00 0.01 0.01 0.01 0.02 0.03 0.03 0.02 0.02 0.03 0.03 0.03 0.03 0.03 0.02 0.01 0.01 0.02 0.03 0.06 0.08 0.06 0.05 0.04 0.04 0.06 0.07 0.08 0.09 0.10 0.10 0.08 0.06 0.06 0.05 0.04 0.04 0.03 0.02 0.01 0.01
0.00 0.00 0.01 0.01 0.01 0.01 0.02 0.04 0.04 0.02 0.02 0.02 0.03 0.03 0.02 0.03 0.03 0.03 0.02 0.03 0.04 0.07 0.08 0.06 0.04 0.03 0.04 0.07 0.09 0.11 0.13 0.14 0.14 0.13 0.11 0.09 0.06 0.05 0.04 0.03 0.03 0.03 0.03
0.01 0.01 0.01 0.01 0.01 0.01 0.02 0.03 0.03 0.02 0.02 0.02 0.02 0.02 0.02 0.02 0.02 0.03 0.03 0.03 0.03 0.05 0.06 0.05 0.03 0.02 0.02 0.03 0.04 0.07 0.08 0.08 0.08 0.09 0.10 0.10 0.08 0.06 0.05 0.04 0.03 0.02 0.02
0.01 0.01 0.01 0.01 0.01 0.01 0.02 0.03 0.04 0.03 0.02 0.02 0.02 0.02 0.02 0.01 0.01 0.01 0.01 0.02 0.03 0.04 0.05 0.05 0.04 0.02 0.02 0.03 0.04 0.05 0.05 0.06 0.06 0.06 0.06 0.05 0.05 0.05 0.04 0.04 0.03 0.02 0.02
0.01 0.01 0.01 0.01 0.01 0.01 0.01 0.02 0.03 0.03 0.02 0.02 0.01 0.01 0.01 0.02 0.01 0.01 0.01 0.02 0.02 0.02 0.03 0.03 0.03 0.03 0.04 0.05 0.04 0.04 0.04 0.05 0.06 0.05 0.06 0.06 0.06 0.04 0.03 0.02 0.02 0.02 0.02
0.00 0.00 0.01 0.01 0.01 0.01 0.02 0.01 0.01 0.02 0.01 0.01 0.01 0.01 0.01 0.01 0.01 0.01 0.01 0.02 0.02 0.02 0.03 0.03 0.03 0.04 0.06 0.05 0.03 0.03 0.02 0.02 0.03 0.04 0.05 0.05 0.04 0.03 0.02 0.02 0.02 0.02 0.01
0.01 0.01 0.01 0.01 0.01 0.01 0.01 0.01 0.01 0.01 0.01 0.01 0.01 0.00 0.00 0.01 0.01 0.01 0.01 0.02 0.02 0.02 0.02 0.02 0.03 0.06 0.05 0.03 0.02 0.01 0.01 0.02 0.02 0.03 0.04 0.04 0.03 0.02 0.02 0.02 0.02 0.01 0.01
0.01 0.01 0.01 0.01 0.01 0.01 0.01 0.01 0.01 0.01 0.01 0.01 0.01 0.01 0.01 0.01 0.01 0.01 0.01 0.01 0.02 0.02 0.02 0.02 0.03 0.05 0.03 0.02 0.02 0.01 0.02 0.02 0.02 0.01 0.03 0.03 0.02 0.02 0.02 0.02 0.02 0.02 0.02
0.01 0.01 0.02 0.01 0.02 0.02 0.02 0.02 0.02 0.01 0.01 0.02 0.02 0.01 0.01 0.01 0.01 0.01 0.01 0.01 0.02 0.02 0.02 0.02 0.04 0.04 0.02 0.02 0.02 0.02 0.02 0.02 0.02 0.02 0.03 0.02 0.02 0.02 0.01 0.01 0.02 0.02 0.04
0.01 0.01 0.02 0.02 0.02 0.02 0.02 0.02 0.01 0.01 0.02 0.02 0.02 0.01 0.01 0.01 0.01 0.01 0.02 0.03 0.02 0.02 0.02 0.03 0.04 0.03 0.02 0.02 0.01 0.02 0.03 0.03 0.03 0.04 0.03 0.02 0.02 0.02 0.01 0.01 0.01 0.02 0.03
0.01 0.02 0.02 0.02 0.02 0.01 0.01 0.01 0.01 0.01 0.01 0.03 0.03 0.02 0.01 0.02 0.03 0.04 0.04 0.03 0.02 0.02 0.02 0.03 0.03 0.03 0.02 0.01 0.02 0.02 0.03 0.03 0.04 0.04 0.03 0.03 0.02 0.01 0.01 0.01 0.01 0.01 0.03
MSLP
1010.65 1010.58 1010.44 1010.23 1009.99 1009.73 1009.49 1009.32 1009.23 1009.21 1009.26 1009.34 1009.43 1009.49 1009.52 1009.50 1009.45 1009.39 1009.35 1009.34 1009.38 1009.46 1009.59 1009.74 1009.93 1010.14 1010.38 1010.66 1011.01 1011.43 1011.93 1012.50 1013.11 1013.72 1014.29 1014.79 1015.17 1015.42 1015.55 1015.59 1015.56 1015.52 1015.50
1010.73 1010.58 1010.36 1010.07 1009.73 1009.38 1009.07 1008.84 1008.72 1008.69 1008.75 1008.85 1008.95 1009.02 1009.05 1009.02 1008.95 1008.89 1008.85 1008.86 1008.93 1009.07 1009.26 1009.49 1009.72 1009.96 1010.20 1010.46 1010.75 1011.11 1011.56 1012.08 1012.67 1013.29 1013.89 1014.44 1014.89 1015.21 1015.41 1015.49 1015.49 1015.46 1015.44
1010.67 1010.47 1010.19 1009.83 1009.42 1009.00 1008.64 1008.36 1008.20 1008.16 1008.22 1008.33 1008.44 1008.52 1008.55 1008.52 1008.46 1008.40 1008.37 1008.41 1008.52 1008.71 1008.95 1009.22 1009.48 1009.73 1009.95 1010.17 1010.42 1010.72 1011.11 1011.60 1012.17 1012.81 1013.45 1014.06 1014.59 1014.99 1015.26 1015.41 1015.47 1015.47 1015.47
1010.50 1010.27 1009.95 1009.55 1009.10 1008.63 1008.22 1007.90 1007.71 1007.65 1007.69 1007.79 1007.91 1008.00 1008.04 1008.02 1007.98 1007.94 1007.94 1008.01 1008.16 1008.38 1008.66 1008.94 1009.21 1009.45 1009.65 1009.83 1010.02 1010.28 1010.63 1011.09 1011.67 1012.32 1013.02 1013.69 1014.29 1014.79 1015.14 1015.37 1015.49 1015.55 1015.59
1010.27 1010.02 1009.69 1009.27 1008.78 1008.29 1007.83 1007.47 1007.24 1007.14 1007.15 1007.24 1007.34 1007.44 1007.49 1007.51 1007.50 1007.50 1007.54 1007.65 1007.83 1008.08 1008.37 1008.66 1008.91 1009.12 1009.29 1009.43 1009.59 1009.81 1010.14 1010.60 1011.18 1011.87 1012.61 1013.34 1014.02 1014.59 1015.03 1015.34 1015.54 1015.67 1015.75
1010.01 1009.75 1009.41 1008.97 1008.47 1007.95 1007.46 1007.05 1006.76 1006.61 1006.58 1006.63 1006.72 1006.81 1006.88 1006.93 1006.97 1007.02 1007.12 1007.28 1007.50 1007.77 1008.06 1008.34 1008.57 1008.75 1008.89 1009.00 1009.13 1009.34 1009.66 1010.13 1010.73 1011.44 1012.22 1013.01 1013.75 1014.39 1014.91 1015.29 1015.57 1015.77 1015.92
1009.75 1009.47 1009.11 1008.66 1008.14 1007.59 1007.05 1006.59 1006.24 1006.02 1005.92 1005.92 1005.97 1006.06 1006.15 1006.24 1006.34 1006.46 1006.63 1006.84 1007.11 1007.40 1007.70 1007.97 1008.18 1008.34 1008.45 1008.54 1008.67 1008.88 1009.21 1009.69 1010.31 1011.05 1011.85 1012.68 1013.45 1014.14 1014.72 1015.18 1015.53 1015.81 1016.03
1009.48 1009.15 1008.76 1008.29 1007.74 1007.14 1006.55 1006.02 1005.60 1005.30 1005.12 1005.06 1005.08 1005.15 1005.27 1005.40 1005.57 1005.77 1006.02 1006.31 1006.63 1006.96 1007.27 1007.54 1007.75 1007.89 1007.99 1008.08 1008.21 1008.43 1008.77 1009.27 1009.90 1010.65 1011.47 1012.31 1013.10 1013.82 1014.44 1014.95 1015.37 1015.73 1016.04
1009.17 1008.78 1008.33 1007.81 1007.21 1006.56 1005.91 1005.31 1004.80 1004.42 1004.17 1004.04 1004.01 1004.08 1004.21 1004.40 1004.65 1004.94 1005.28 1005.66 1006.05 1006.43 1006.78 1007.06 1007.28 1007.43 1007.53 1007.64 1007.78 1008.01 1008.37 1008.88 1009.52 1010.26 1011.07 1011.89 1012.68 1013.41 1014.05 1014.60 1015.08 1015.51 1015.91
1008.79 1008.31 1007.78 1007.18 1006.51 1005.80 1005.09 1004.42 1003.83 1003.37 1003.05 1002.86 1002.80 1002.86 1003.03 1003.28 1003.60 1004.00 1004.44 1004.92 1005.39 1005.84 1006.24 1006.57 1006.81 1006.98 1007.10 1007.23 1007.40 1007.65 1008.02 1008.52 1009.15 1009.87 1010.65 1011.44 1012.20 1012.91 1013.56 1014.14 1014.67 1015.16 1015.64
1008.32 1007.73 1007.09 1006.40 1005.65 1004.87 1004.09 1003.35 1002.71 1002.19 1001.81 1001.58 1001.51 1001.57 1001.77 1002.09 1002.51 1003.00 1003.56 1004.14 1004.71 1005.25 1005.71 1006.09 1006.37 1006.58 1006.74 1006.89 1007.08 1007.35 1007.72 1008.21 1008.81 1009.50 1010.23 1010.97 1011.69 1012.38 1013.01 1013.60 1014.17 1014.73 1015.28
1007.80 1007.07 1006.32 1005.52 1004.68 1003.82 1002.98 1002.19 1001.51 1000.95 1000.54 1000.29 1000.21 1000.30 1000.55 1000.94 1001.44 1002.05 1002.71 1003.40 1004.07 1004.69 1005.23 1005.67 1006.00 1006.25 1006.45 1006.63 1006.84 1007.12 1007.49 1007.96 1008.53 1009.17 1009.84 1010.53 1011.21 1011.85 1012.47 1013.07 1013.66 1014.26 1014.87
1007.27 1006.41 1005.52 1004.60 1003.67 1002.74 1001.85 1001.03 1000.31 999.74 999.33 999.09 999.03 999.15 999.45 999.91 1000.50 1001.20 1001.97 1002.75 1003.52 1004.22 1004.83 1005.32 1005.71 1006.00 1006.23 1006.43 1006.66 1006.95 1007.31 1007.76 1008.30 1008.89 1009.52 1010.16 1010.79 1011.40 1012.00 1012.59 1013.20 1013.83 1014.48
1006.81 1005.81 1004.79 1003.76 1002.73 1001.74 1000.80 999.96 999.24 998.68 998.28 998.06 998.04 998.21 998.56 999.08 999.75 1000.53 1001.38 1002.24 1003.08 1003.84 1004.50 1005.05 1005.47 1005.79 1006.05 1006.28 1006.52 1006.81 1007.17 1007.61 1008.12 1008.68 1009.27 1009.87 1010.47 1011.06 1011.64 1012.24 1012.85 1013.49 1014.16
1006.48 1005.36 1004.21 1003.07 1001.96 1000.91 999.95 999.10 998.39 997.84 997.48 997.30 997.31 997.52 997.93 998.50 999.23 1000.06 1000.96 1001.87 1002.75 1003.55 1004.25 1004.81 1005.26 1005.60 1005.87 1006.11 1006.37 1006.67 1007.03 1007.47 1007.97 1008.53 1009.11 1009.70 1010.29 1010.87 1011.44 1012.03 1012.65 1013.29 1013.97
1006.34 1005.10 1003.86 1002.63 1001.45 1000.35 999.36 998.51 997.82 997.30 996.97 996.82 996.88 997.13 997.56 998.17 998.93 999.79 1000.71 1001.64 1002.53 1003.34 1004.03 1004.59 1005.04 1005.38 1005.66 1005.91 1006.18 1006.49 1006.88 1007.33 1007.86 1008.43 1009.02 1009.63 1010.23 1010.82 1011.41 1012.00 1012.61 1013.25 1013.91
1006.38 1005.07 1003.75 1002.45 1001.22 1000.09 999.10 998.25 997.58 997.09 996.78 996.67 996.75 997.02 997.47 998.09 998.85 999.70 1000.61 1001.52 1002.39 1003.17 1003.84 1004.38 1004.80 1005.13 1005.40 1005.66 1005.95 1006.29 1006.70 1007.20 1007.76 1008.37 1009.02 1009.66 1010.30 1010.93 1011.54 1012.14 1012.75 1013.38 1014.02
1006.60 1005.24 1003.87 1002.54 1001.29 1000.15 999.16 998.33 997.68 997.21 996.92 996.83 996.91 997.18 997.63 998.23 998.96 999.79 1000.65 1001.52 1002.33 1003.06 1003.67 1004.17 1004.56 1004.86 1005.13 1005.40 1005.70 1006.07 1006.54 1007.09 1007.71 1008.39 1009.10 1009.81 1010.51 1011.18 1011.82 1012.44 1013.05 1013.67 1014.28
1006.92 1005.56 1004.19 1002.86 1001.62 1000.51 999.54 998.74 998.11 997.65 997.38 997.28 997.35 997.61 998.02 998.58 999.26 1000.03 1000.83 1001.62 1002.36 1003.02 1003.57 1004.01 1004.36 1004.64 1004.90 1005.18 1005.51 1005.93 1006.44 1007.06 1007.76 1008.51 1009.30 1010.08 1010.83 1011.56 1012.23 1012.88 1013.49 1014.10 1014.69
1007.29 1005.96 1004.64 1003.36 1002.17 1001.11 1000.19 999.42 998.82 998.38 998.10 997.99 998.05 998.26 998.62 999.13 999.74 1000.43 1001.15 1001.86 1002.53 1003.11 1003.59 1003.98 1004.29 1004.55 1004.81 1005.10 1005.46 1005.92 1006.50 1007.18 1007.95 1008.78 1009.63 1010.48 1011.29 1012.06 1012.77 1013.43 1014.04 1014.63 1015.21
1007.66 1006.42 1005.18 1003.99 1002.89 1001.90 1001.05 1000.33 999.77 999.34 999.07 998.94 998.96 999.12 999.43 999.87 1000.40 1001.01 1001.65 1002.27 1002.86 1003.37 1003.80 1004.14 1004.42 1004.67 1004.93 1005.24 1005.64 1006.14 1006.77 1007.51 1008.34 1009.22 1010.13 1011.02 1011.87 1012.66 1013.39 1014.06 1014.67 1015.25 1015.80
1008.02 1006.89 1005.77 1004.70 1003.72 1002.84 1002.07 1001.42 1000.90 1000.50 1000.23 1000.08 1000.06 1000.17 1000.42 1000.78 1001.24 1001.76 1002.32 1002.87 1003.39 1003.84 1004.22 1004.53 1004.80 1005.05 1005.32 1005.66 1006.09 1006.64 1007.30 1008.08 1008.94 1009.86 1010.78 1011.69 1012.56 1013.35 1014.08 1014.73 1015.33 1015.89 1016.43
1008.38 1007.38 1006.40 1005.47 1004.62 1003.86 1003.19 1002.62 1002.16 1001.79 1001.52 1001.35 1001.30 1001.37 1001.55 1001.85 1002.24 1002.69 1003.17 1003.66 1004.12 1004.53 1004.88 1005.17 1005.44 1005.70 1006.00 1006.36 1006.82 1007.40 1008.09 1008.88 1009.75 1010.66 1011.58 1012.47 1013.32 1014.09 1014.79 1015.42 1015.99 1016.53 1017.04
1008.76 1007.90 1007.06 1006.27 1005.55 1004.91 1004.35 1003.87 1003.46 1003.12 1002.87 1002.70 1002.63 1002.66 1002.79 1003.03 1003.36 1003.75 1004.17 1004.61 1005.02 1005.40 1005.74 1006.04 1006.31 1006.60 1006.92 1007.31 1007.79 1008.37 1009.06 1009.85 1010.70 1011.58 1012.46 1013.30 1014.09 1014.82 1015.47 1016.06 1016.59 1017.10 1017.58
1009.19 1008.45 1007.73 1007.07 1006.48 1005.95 1005.48 1005.08 1004.73 1004.44 1004.21 1004.04 1003.96 1003.97 1004.07 1004.27 1004.54 1004.88 1005.27 1005.66 1006.05 1006.41 1006.75 1007.05 1007.34 1007.65 1007.99 1008.40 1008.89 1009.48 1010.15 1010.90 1011.70 1012.52 1013.34 1014.12 1014.84 1015.49 1016.08 1016.62 1017.11 1017.57 1018.03
1009.67 1009.02 1008.41 1007.85 1007.35 1006.91 1006.53 1006.19 1005.90 1005.65 1005.45 1005.31 1005.23 1005.23 1005.32 1005.49 1005.74 1006.04 1006.39 1006.76 1007.13 1007.48 1007.81 1008.13 1008.44 1008.76 1009.12 1009.54 1010.03 1010.60 1011.24 1011.94 1012.67 1013.42 1014.15 1014.84 1015.48 1016.07 1016.59 1017.06 1017.51 1017.94 1018.36
Thickness
5726 5725 5723 5721 5717 5713 5710 5707 5705 5702 5699 5696 5693 5690 5688 5687 5686 5685 5683 5682 5682 5681 5680 5679 5679 5678 5677 5676 5675 5674 5671 5670 5669 5667 5667 5669 5671 5672 5673 5674 5675 5675 5676
5719 5719 5717 5715 5711 5708 5706 5703 5699 5696 5694 5691 5688 5685 5683 5682 5681 5679 5678 5677 5677 5676 5676 5674 5674 5673 5672 5671 5670 5668 5666 5665 5664 5661 5658 5659 5661 5666 5669 5669 5669 5670 5670
5714 5713 5711 5708 5706 5703 5701 5699 5694 5691 5688 5685 5681 5678 5676 5674 5673 5672 5672 5672 5671 5670 5670 5669 5669 5668 5667 5666 5665 5664 5662 5660 5658 5657 5654 5652 5654 5657 5661 5663 5664 5664 5663
5710 5708 5705 5702 5700 5699 5696 5692 5688 5685 5682 5678 5674 5671 5668 5665 5666 5665 5665 5665 5665 5664 5664 5663 5663 5663 5662 5661 5660 5660 5658 5657 5654 5653 5652 5652 5652 5651 5652 5655 5657 5657 5657
5705 5703 5701 5698 5696 5694 5691 5687 5683 5679 5676 5672 5668 5665 5662 5660 5659 5658 5658 5658 5658 5658 5659 5658 5658 5658 5657 5656 5656 5655 5655 5653 5651 5649 5648 5647 5645 5646 5645 5647 5649 5650 5652
5701 5698 5696 5693 5691 5689 5685 5682 5677 5674 5671 5667 5664 5660 5657 5654 5652 5652 5651 5651 5651 5652 5653 5653 5653 5653 5653 5653 5652 5652 5652 5651 5648 5646 5645 5644 5642 5641 5641 5641 5642 5643 5645
5694 5691 5690 5687 5685 5683 5680 5676 5673 5669 5666 5662 5660 5657 5653 5650 5648 5647 5647 5646 5646 5647 5648 5649 5649 5649 5649 5649 5649 5648 5648 5647 5645 5644 5643 5642 5641 5640 5638 5637 5636 5636 5637
5687 5685 5684 5682 5679 5677 5674 5671 5668 5664 5661 5658 5656 5653 5650 5647 5645 5644 5643 5642 5642 5643 5644 5644 5644 5645 5645 5645 5645 5644 5644 5643 5642 5641 5640 5638 5637 5636 5635 5634 5632 5630 5630
5683 5681 5679 5677 5675 5672 5670 5667 5663 5660 5658 5655 5653 5650 5647 5645 5643 5641 5640 5640 5640 5640 5641 5640 5641 5641 5642 5642 5641 5640 5640 5640 5639 5637 5636 5634 5634 5633 5632 5630 5629 5626 5625
5677 5676 5675 5673 5671 5669 5666 5664 5660 5657 5655 5652 5649 5647 5644 5642 5640 5639 5638 5638 5638 5637 5637 5637 5638 5638 5639 5638 5638 5637 5637 5636 5635 5633 5632 5631 5630 5629 5628 5626 5624 5623 5621
5671 5670 5670 5668 5667 5664 5662 5660 5657 5654 5651 5649 5646 5644 5642 5640 5638 5636 5636 5635 5634 5634 5634 5634 5635 5635 5635 5635 5634 5634 5633 5633 5632 5630 5629 5628 5626 5625 5623 5621 5619 5618 5616
5668 5667 5665 5663 5662 5660 5658 5656 5653 5650 5648 5646 5643 5641 5639 5637 5636 5635 5634 5633 5632 5632 5631 5632 5632 5632 5632 5631 5630 5630 5630 5629 5628 5627 5625 5624 5623 5621 5619 5617 5616 5615 5613
5664 5663 5661 5659 5658 5656 5654 5652 5650 5647 5645 5643 5640 5638 5636 5634 5633 5632 5631 5630 5630 5629 5629 5629 5629 5629 5628 5628 5627 5627 5627 5626 5625 5624 5623 5622 5620 5618 5617 5615 5613 5612 5611
5659 5658 5656 5654 5653 5651 5649 5647 5645 5643 5641 5639 5636 5634 5632 5631 5630 5629 5628 5627 5626 5626 5626 5626 5626 5625 5625 5625 5624 5624 5623 5623 5622 5621 5621 5620 5619 5617 5615 5612 5610 5608 5606
5655 5653 5651 5649 5648 5646 5644 5642 5640 5639 5637 5634 5632 5630 5629 5628 5626 5626 5625 5624 5623 5624 5624 5623 5623 5622 5622 5622 5622 5621 5621 5620 5619 5618 5618 5618 5617 5616 5613 5612 5609 5606 5603
5650 5649 5647 5645 5643 5641 5639 5637 5635 5634 5632 5629 5628 5627 5626 5625 5623 5623 5622 5621 5620 5620 5619 5619 5620 5619 5620 5619 5619 5618 5618 5618 5616 5616 5615 5615 5614 5613 5612 5610 5608 5606 5603
5646 5644 5643 5641 5639 5637 5635 5633 5631 5629 5627 5626 5625 5624 5622 5621 5620 5619 5618 5617 5616 5616 5615 5615 5615 5615 5615 5615 5615 5615 5614 5613 5613 5612 5612 5612 5612 5610 5608 5607 5605 5603 5601
5642 5640 5638 5637 5635 5633 5631 5629 5628 5625 5624 5622 5621 5620 5618 5617 5617 5615 5614 5613 5612 5612 5612 5612 5611 5611 5611 5611 5611 5611 5610 5609 5609 5609 5608 5607 5606 5606 5604 5603 5601 5599 5598
5638 5636 5635 5633 5631 5630 5628 5626 5624 5622 5620 5619 5617 5616 5615 5613 5612 5611 5610 5609 5608 5607 5607 5607 5607 5607 5607 5607 5607 5607 5605 5604 5604 5604 5604 5603 5602 5601 5600 5598 5597 5595 5594
5635 5632 5631 5629 5628 5626 5624 5621 5619 5617 5616 5615 5614 5613 5612 5610 5608 5607 5606 5605 5603 5602 5602 5602 5602 5601 5602 5603 5603 5602 5601 5600 5600 5600 5599 5598 5597 5596 5595 5594 5593 5591 5591
5632 5630 5628 5625 5624 5622 5619 5617 5615 5613 5613 5612 5611 5610 5608 5606 5605 5603 5602 5600 5599 5598 5597 5596 5597 5597 5597 5598 5598 5598 5597 5596 5596 5596 5596 5595 5593 5592 5590 5589 5589 5588 5587
5627 5626 5623 5621 5619 5617 5614 5612 5611 5611 5610 5609 5608 5606 5605 5604 5603 5600 5598 5596 5595 5593 5592 5592 5593 5593 5593 5594 5594 5594 5593 5593 5592 5592 5592 5591 5590 5588 5587 5586 5585 5584 5582
5621 5620 5617 5615 5614 5612 5610 5608 5608 5608 5606 5605 5604 5603 5602 5600 5599 5597 5595 5593 5591 5589 5589 5588 5589 5590 5590 5590 5590 5589 5589 5589 5588 5589 5588 5587 5585 5584 5583 5582 5581 5580 5579
5616 5614 5612 5610 5609 5608 5606 5605 5605 5604 5602 5601 5600 5599 5598 5596 5595 5593 5592 5590 5588 5587 5586 5586 5585 5586 5586 5587 5587 5586 5586 5585 5585 5584 5584 5583 5581 5581 5580 5579 5577 5576 5575
5611 5609 5606 5605 5604 5604 5603 5602 5602 5600 5599 5598 5597 5595 5594 5592 5590 5589 5588 5588 5587 5585 5584 5584 5583 5583 5583 5584 5583 5582 5582 5582 5582 5581 5581 5580 5579 5578 5577 5576 5574 5572 5570
5606 5604 5603 5602 5601 5600 5599 5599 5598 5596 5595 5593 5593 5591 5590 5589 5587 5586 5587 5586 5585 5585 5583 5582 5580 5580 5579 5579 5579 5578 5578 5577 5577 5577 5577 5577 5576 5575 5574 5573 5571 5569 5567